Starlink 2714

operational
NORAD ID: 48603 Int'l Des: 2021-041 Owner: SPXS Country: US Constellation: starlink
LEOCIRCULARSTARLINK_TYPE

Über Starlink 2714

Beschreibung wird geladen...

Live-Position

3D-Globus wird geladen...

Nächste Überflüge

Höhenverlauf

Altitude vs Time

uPlot chart will show altitude changes over time

Zweizeiliger Elementsatz

1 48603U 21041BC 26062.60146395 .00013123 00000-0 89768-3 0 9990
2 48603 53.0539 138.9516 0001188 81.6266 278.4858 15.06422107265832
Epoch: 3. März 2026 • Age: 26 hours

Aktueller Status

Höhe 552.8 km
Geschwindigkeit 7.59 km/s
Subsatellitenpunkt 52.90°N, 43.48°E
Startdatum 15. Mai 2021
Alter 4.7 years
Typ internet

Technische Details

Klassifizierung Payload
Masse 260.00 kg
Trockenmasse 248.00 kg
Gesamtmasse 260.00 kg
Länge 0.20 m
Durchmesser 2.80 m
Spannweite 9.00 m
Form Box + pan
Hersteller SPXS
Bus-Typ Starlink
Phasenstatus In Orbit
Besitzer/Staat SPXS/US

Große Konstellationen

Loading constellations...